91P/Russell 3 (2013)

Japanese version
Home page
Updated on February 10, 2013

---------------------------------------------------------------------

* Profile

* Orbital Elements

Epoch 2013 Mar. 9.0 TT = JDT 2456360.5
T 2013 Mar. 1.17211 TT                                  MPC
q   2.6168131            (2000.0)            P               Q
n   0.12796360     Peri.  354.64831     -0.45885404     +0.85947550
a   3.9001241      Node   247.87110     -0.80590492     -0.50935776
e   0.3290436      Incl.   14.07566     -0.37412595     +0.04308743
P   7.70
From 238 observations 1996 Nov. 18-2012 May 23, mean residual 0".8.
     Nongravitational parameters A1 = -1.60, A2 = +0.1207.

* Finding Charts

* Magnitudes Graph

        m1 = 7.5 + 5 log d + 20.0 log r

---------------------------------------------------------------------

The orbital elements are published on M.P.E.C. 2012-L04.
The charts are made with StellaNavigator Ver.8 (AstroArts).
The magnitudes graphs are made with Comet for Windows.

---------------------------------------------------------------------

Copyright(C) Seiichi Yoshida (comet@aerith.net). All rights reserved.